Starlink 2704

operational
NORAD ID: 48643 Int'l Des: 2021-044 Owner: SPXS Country: US Constellation: starlink
LEOCIRCULARSTARLINK_TYPE

About Starlink 2704

Description loading...

Live Position

Loading 3D Globe...

Upcoming Passes

Altitude History

Altitude vs Time

uPlot chart will show altitude changes over time

Two-Line Element Set

1 48643U 21044F 25304.26902399 .00010660 00000-0 73349-3 0 9992
2 48643 53.0557 342.6035 0001289 95.4929 264.6207 15.06396531244201
Epoch: Oct 31, 2025 • Age: 13 hours

Current Status

Altitude 549.2 km
Velocity 7.59 km/s
Sub-Earth Point 35.85°N, 150.29°E
Launch Date May 26, 2021
Age 4.4 years
Type internet

Technical Details

Classification Payload
Mass 260.00 kg
Dry Mass 248.00 kg
Total Mass 260.00 kg
Length 0.20 m
Diameter 2.80 m
Span 9.00 m
Shape Box + pan
Manufacturer SPXS
Bus Type Starlink
Phase Status In Orbit
Owner/State SPXS/US

Large Constellations

Loading constellations...